Regional Weather Roundup
Issued by NWS

Home | Current Version | Previous Version | Graphics & Text | Print | Product List | Glossary On
Versions: 1 2 3 4 5 6 7 8 9 10 11 12 13 14 15 16 17 18 19 20 21 22 23 24 25 26 27 28 29 30 31 32 33 34 35 36 37 38 39 40 41 42 43 44 45 46 47 48 49 50
000
ASUS45 KABQ 300510
RWRNM
NEW MEXICO REGIONAL WEATHER ROUNDUP
NATIONAL WEATHER SERVICE ALBUQUERQUE NM
1100 PM MDT SUN MAY 29 2016

NOTE: "FAIR" MEANS FEW OR NO CLOUDS BELOW 12,000 FEET AGL WITH NO
       SIGNIFICANT WEATHER OR OBSTRUCTIONS TO VISION.

      THIS PRODUCT IS RELEASED AS TWO VERSIONS.  ONE VERSION NEAR
      THE TOP OF THE HOUR CONTAINING PRELIMINARY DATA FROM ALBUQUERQUE
      AND OTHER STATIONS.  A FINAL VERSION WITH ADDITIONAL DATA IS
      ISSUED ABOUT 10 MINUTES AFTER THE HOUR.

NMZ501-503-504-510>518-300600-
NORTHWEST PLATEAU/NORTHCENTRAL MOUNTAINS

CITY           SKY/WX    TMP DP  RH WIND       PRES   REMARKS
FARMINGTON     FAIR      61  17  18 N5        30.04R
LOS ALAMOS     FAIR      65  13  13 SW12      30.19S
SANTA FE       FAIR      66  33  29 E16       30.13R
TAOS           FAIR      55  19  24 SE5       30.19F
ANGEL FIRE     FAIR      51  36  55 E7        30.31R

$$
NMZ402-403-502-505>509-300600-
WESTCENTRAL MOUNTAINS/SOUTHWEST MOUNTAINS

CITY           SKY/WX    TMP DP  RH WIND       PRES   REMARKS
GALLUP         FAIR      56  11  16 CALM      30.15R
GRANTS         FAIR      63  11  13 W8        30.18R
SILVER CITY      N/A     57  19  23 NW6       30.13S

$$
NMZ407-409-411-412-300600-
SOUTHERN DESERTS

CITY           SKY/WX    TMP DP  RH WIND       PRES   REMARKS
LORDSBURG      FAIR      73  28  19 SW10G16   30.04R
DEMING         FAIR      74  37  26 S8        30.05R
LAS CRUCES     FAIR      74  32  21 SW7       30.07R
HOLLOMAN AFB   MOCLDY    73  23  15 SE7       30.02R
ALAMOGORDO     FAIR      75  28  17 S10G16    30.05R
T OR C         FAIR      74  28  18 SW6       30.05R

$$
NMZ519>523-300600-
CENTRAL VALLEYS/CENTRAL HIGHLANDS

CITY           SKY/WX    TMP DP  RH WIND       PRES   REMARKS
ALBUQUERQUE    FAIR      68  17  14 S9        30.06R
DOUBLE EAGLE   FAIR      57  18  21 SW9       30.10R
MORIARTY ARPT  FAIR      61  35  39 SE13      30.16S
CLINES CORNERS FAIR      57  41  55 S15       30.20S
BELEN          FAIR      68  13  11 SW8       30.06S
SOCORRO        FAIR      69  19  14 SE7       30.05R

$$
NMZ524>526-539-540-300600-
SOUTHCENTRAL MOUNTAINS

CITY           SKY/WX    TMP DP  RH WIND       PRES   REMARKS
RUIDOSO          N/A     57  45  62 SE10      30.28R

$$
NMZ527>531-300600-
NORTHEAST HIGHLANDS/NORTHEAST PLAINS

CITY           SKY/WX    TMP DP  RH WIND       PRES   REMARKS
LAS VEGAS      FAIR      52  44  74 S10       30.26R
RATON          FAIR      49  43  80 N9        30.25R
CLAYTON        FAIR      52  50  93 S9        30.19S

$$
NMZ532>537-300600-
EASTCENTRAL PLAINS

CITY           SKY/WX    TMP DP  RH WIND       PRES   REMARKS
TUCUMCARI      FAIR      54  51  90 NE7       30.15R
CANNON AFB     CLOUDY    55  55 100 SE12      30.17R
CLOVIS AIRPORT CLOUDY    54  48  82 SE14      30.16R

$$
NMZ028-029-538-300600-
SOUTHEAST PLAINS

CITY           SKY/WX    TMP DP  RH WIND       PRES   REMARKS
ROSWELL        FAIR      62  49  62 E14G23    30.13R
ARTESIA        FAIR      64  54  68 E17G26    30.11R
CARLSBAD       FAIR      65  56  72 NE17G24   30.08R
HOBBS          FAIR      57  57 100 E18G28    30.16S


$$




USA.gov is the U.S. government's official web portal to all federal, state and local government web resources and services.